Find Starlink 4373

NORAD ID: 53219 Int'l Des: 2022-084 Owner: SPXS Country: US Constellation: starlink operational
LEOCIRCULARRETROGRADESSO

当前视图

正在加载3D地球...

关于 Starlink 4373

正在加载描述...

即将过境

Passes for default location (London). Set your location on the main map for personalized predictions.

高度历史

Loading altitude history...

两行轨道根数

1 53219U 22084AG 26150.64167125 .00000337 00000-0 27414-4 0 9997
2 53219 97.4253 211.4878 0001141 126.8190 233.3142 15.05651670211713
Epoch: May 30, 2026 • Age: 16 hours

当前状态

高度 552.3 km
速度 7.59 km/s
星下点 20.00°N, 150.97°W
发射日期 Jul 22, 2022
运行时间 3.8 years
类型 internet

技术详情

分类 Payload
质量 297.00 kg
干质量 275.00 kg
总质量 297.00 kg
长度 0.20 m
直径 2.80 m
跨度 9.00 m
形状 Box + pan
制造商 SPXS
平台类型 Starlink
阶段状态 In Orbit
所有者/国家 SPXS/US

Most Searched